User: anonymous   Login
Location: Demmingen
(48.6757°N, 10.4375°E)
Time: 21:48:39
(UTC+00:00)
Language:

Cosmos 1908 Rocket - Orbit

View from above orbital plane
View from above orbital plane
View from above satellite
View from above satellite

Ground track
Ground track

The orbit data is extracted from the following two-line orbital elements,

1 18749U 88001B   24205.46788088  .00001139  00000-0  13224-3 0  9997
2 18749  82.5125  33.9519 0019455  45.6579 314.6227 14.84416107953822
Epoch (UTC): 23 July 2024 11:13:44
Eccentricity: 0.0019455
inclination: 82.5125°
perigee height: 602 km
apogee height: 629 km
right ascension of ascending node: 33.9519°
argument of perigee: 45.6579°
revolutions per day: 14.84416107
mean anomaly at epoch: 314.6227°
orbit number at epoch: 95382

The dashed part of the orbit path shows where the satellite is in the earth's shadow,  

DLR